Royal Flush POKER88 Online - DEWA POKER Indonesia Terpercaya

Jackpot

Texas Poker Multi Jackpot System

Kini Telah hadir Jackpot SUPER ROYAL FLUSH

Kini Telah hadir Jackpot 2000 (khusus table VIP keatas).

Ikutilah global jackpot yang tersedia di system kami, dengan system jackpot terbaru dan pertama di indonesia, anda dapat membeli jackpot dengan harga 100 rupiah saja dan menangkan hadiahnya hingga puluhan juta rupiah.

Jackpot bukanlah suatu keharusan untuk dibeli, namun kami memberikan suatu fitur tambahan untuk member tercinta dari www.jagoanpoker.net.

Terdapat tiga pilihan harga jackpot yang bisa anda beli yaitu :100,500,1000 dan 2000(khusus table VIP Keatas) rupiah.

Hadiah dari Multi jackpot system www.jagoanpoker.net

  1. full house x 10 harga jackpot yang anda beli.
      (contoh:anda membeli 1000 maka:1000 X10 = 10.000)
  2. four of kind x 250 harga jackpot yang anda beli
      (contoh:anda membeli 1000 maka:1000 X250 = 250.000)
  3. Straight flush x 1200
      (contoh:anda membeli 1000 maka:1000 X1200 = 1.200.000)
  4. Royal flush x 10000 harga jackpot yang anda beli
      (contoh:anda membeli 1000 maka:1000 X10000 = 10.000.000)
  5. SUPER ROYAL FLUSH x 30000 harga jackpot yang anda beli
      (contoh:anda membeli 1000 maka:1000 X30000 = 30.000.000)

Kondisi kartu

  1. full house adalah kondisi kartu dimana kartu anda dan kartu tengah dengan total 7 kartu bisa mendapatkan nilai 5 kartu dengan kombinasi 1 tris(three of kind) dan 1 pair, contoh 3 kartu 10 dan 2 kartu 5
  2. Four of kind adalah kondisi kartu dimana kartu anda dan kartu tengah dengan total 7 kartu bisa mendapatkan nilai 5 kartu dengan kombinasi 4 kartu yang sama jumlah dan 1 kartu apapun juga contoh anda mendapatkan 4 buah kartu angka 3 dan 1 kartu apapun.
  3. Staright flush adalah kondisi kartu dimana kartu anda dan kartu tengah dengan total 7 kartu bisa mendapatkan nilai 5 kartu dengan kombinasi seri / staright dengan kembang yang sama contoh : urutan kartu dari angka 5, 6, 7, 8 , 9 10 dengan kembang yg sama misalnya as hati
  4. Royal flush adalah kondisi kartu dimana kartu anda dan kartu tengah dengan total 7 kartu bisa mendapatkan nilai 5 kartu dengan kombinasi seri / staright dengan kembang yang sama tetapi kartu tersebut haruslah dimulai dari 10. contoh 10, Queen, Jack, King dan aces dengan kembang yang sama
  5. Super Royal flush adalah kondisi kartu dimana Kedua kartu anda digabung dengan 3 kartu pertama meja haruslah royal flush. contoh kartu anda 10,Queen kembang sama dan 3 kartu pertama meja adalah Jack, King dan aces dengan kembang yang sama

Demikian adalah penjelasan dari Multi Jackpot www.jagoanpoker.net terima kasih dan selamat bermain salam hoki dari kami

Texas Poker Jackpot Winner

TOP SUPER ROYAL FLUSH
No.TanggalNamaPriceWin
118/09 20:47DEDEE07Super Royal flush3,000,000
218/09 18:02BA94NSuper Royal flush15,000,000
318/09 18:01LAETORU5Super Royal flush6,000,000
418/09 15:57COYOSuper Royal flush6,000,000
518/09 05:39BREMBO80Super Royal flush15,000,000
TOP ROYAL FLUSH
No.TanggalNamaPriceWin
118/09 20:55SPEKOLRoyal flush10,000,000
218/09 20:53RIKAJAYARoyal flush5,000,000
318/09 20:46ONE138Royal flush1,000,000
418/09 20:43AISITERU65Royal flush20,000,000
518/09 20:14TOHAR94Royal flush2,000,000
TOP STRAIGHT FLUSH
No.TanggalNamaPriceWin
118/09 20:55YX77Straight Flush240,000
218/09 20:54CIAMIK212Straight Flush240,000
318/09 20:54SK27Straight Flush60,000
418/09 20:52SATGAS007Straight Flush1,200,000
518/09 20:52VERA11AAStraight Flush600,000
LATEST JACKPOT
No.TanggalNamaPriceWin
118/09 20:57ANORA99Full House1,000
218/09 20:57AAAALDNA78Full House5,000
318/09 20:56UMAR20Full House2,000
418/09 20:56AIN878787Full House1,000
518/09 20:56B40UCUPS84243Full House2,000
618/09 20:56F1574C78Full House2,000
718/09 20:56TEAMLO69Full House5,000
818/09 20:56AMIK_RAKUSFull House10,000
918/09 20:56M403N91Full House2,000
1018/09 20:56ATOEK666Full House1,000
1118/09 20:56THEEEONEEFull House10,000
1218/09 20:56ATM1010Full House2,000
1318/09 20:56DEMOK88Full House5,000
1418/09 20:56RISKI777Full House5,000
1518/09 20:56JPSYANTIK9Full House5,000
1618/09 20:56HOCKEY12Full House10,000
1718/09 20:56TELO79Full House5,000
1818/09 20:56TANKZFull House5,000
1918/09 20:56CLUTAK87Full House20,000
2018/09 20:56CONAN1034Full House5,000
2118/09 20:56RAMLAH31Full House5,000
2218/09 20:56DEWA611Full House5,000
2318/09 20:56VANGKEFull House5,000
2418/09 20:56OGUTKIYU12Full House5,000
2518/09 20:56HWF9C5FN1MFull House5,000
2618/09 20:56FT4T5N97L9Full House5,000
2718/09 20:56BMB808Full House5,000
2818/09 20:56HALIMMAROHFull House5,000
2918/09 20:56THOYIBZZFull House5,000
3018/09 20:56DARAH114Full House2,000
3118/09 20:56BORNEO1221Full House2,000
3218/09 20:56RJBORNEO99Full House10,000
3318/09 20:56F6614F8EFull House2,000
3418/09 20:56LINTAHJFull House5,000
3518/09 20:56K_BNIFull House2,000
3618/09 20:56RARA18Full House2,000
3718/09 20:56ZYDAN01Full House5,000
3818/09 20:56CIKAKAEFull House2,000
3918/09 20:56ROJAN112Four Of A Kind25,000
4018/09 20:56KENYO999Full House10,000
4118/09 20:56KOTAROMINAFull House2,000
4218/09 20:56SUSAHBET1Full House2,000
4318/09 20:56KONTOS44Full House2,000
4418/09 20:56RA0SFull House20,000
4518/09 20:56THECHOICE1Full House1,000
4618/09 20:56NIE1973Full House5,000
4718/09 20:56XANDROFull House10,000
4818/09 20:56MAX_MAX99Full House1,000
4918/09 20:56IGNA18DEWAFull House1,000
5018/09 20:56OMPONG1Full House2,000

Domino Multi Jackpot System

Ikutilah global jackpot yang tersedia di system kami, dengan system jackpot terbaru dan pertama di indonesia, anda dapat membeli jackpot dengan harga 100 rupiah saja dan menangkan hadiahnya hingga puluhan juta rupiah.

Jackpot bukanlah suatu keharusan untuk dibeli, namun kami memberikan suatu fitur tambahan untuk member tercinta dari www.jagoanpoker.net.

Terdapat tiga pilihan harga jackpot yang bisa anda beli yaitu :100,500 dan 1000 rupiah.

Hadiah dari Multi jackpot system www.jagoanpoker.net

  1. Murni Kecil x 50 harga jackpot yang anda beli.
      (contoh:anda membeli 1000 maka:1000 X 50 = 50.000)
  2. Murni Besar x 50 harga jackpot yang anda beli
      (contoh:anda membeli 1000 maka:1000 X 50 = 50.000)
  3. BALAK x 100 harga jackpot yang anda beli
      (contoh:anda membeli 1000 maka:1000 X 100 = 100.000)
  4. ENAM DEWA x 6666 harga jackpot yang anda beli
      (contoh:anda membeli 1000 maka:1000 X 6666 = 6.666.000)

Demikian adalah penjelasan dari Multi Jackpot www.jagoanpoker.net terima kasih dan selamat bermain salam hoki dari kami

Domino Jackpot Winner

TOP ENAM DEWA
No.TanggalNamaPriceWin
118/09 20:31CUCUK_9murni enam3,333,000
218/09 19:41HOKYJR55murni enam666,600
318/09 19:32FAVIN_JPmurni enam6,666,000
418/09 18:06HETA8X81DPmurni enam6,666,000
518/09 18:05PINOKIO99murni enam666,600
TOP BALAK
No.TanggalNamaPriceWin
118/09 20:55YUDIS1585balak10,000
218/09 20:50AT4N6666balak50,000
318/09 20:48TEMPUYAK90balak50,000
418/09 20:48GAGALAITUbalak10,000
518/09 20:48PLGTOPAZ12balak10,000
LATEST JACKPOT
No.TanggalNamaPriceWin
118/09 20:56PASTIMNG1lucky9925,000
218/09 20:56KIRSANmurni kecil50,000
318/09 20:55JATI91murni kecil50,000
418/09 20:55KASAM00murni besar25,000
518/09 20:55NCI39113murni besar25,000
618/09 20:55PIKKYCUTEmurni besar50,000
718/09 20:553COL13murni besar50,000
818/09 20:55YUDIS1585balak10,000
918/09 20:55SEPTA99murni kecil50,000
1018/09 20:55AZKHA33murni besar50,000
1118/09 20:54WAKELUCKYmurni besar50,000
1218/09 20:54GORENKWAEmurni besar25,000
1318/09 20:54ROS42murni besar50,000
1418/09 20:53MOJJ4murni besar25,000
1518/09 20:53ALISmurni besar5,000
1618/09 20:52TMN07murni besar50,000
1718/09 20:52ZAITUNmurni kecil25,000
1818/09 20:52SEIERAmurni besar25,000
1918/09 20:51SOHAHAU1murni kecil50,000
2018/09 20:51RASKAL90murni besar50,000
2118/09 20:51CEPOYOKEHmurni kecil5,000
2218/09 20:51X6X6X6murni besar50,000
2318/09 20:50MAMUN74murni besar50,000
2418/09 20:50DARSUN90murni besar25,000
2518/09 20:50AT4N6666balak50,000
2618/09 20:50BRODEVmurni kecil25,000
2718/09 20:50OIJLC77RHCmurni besar50,000
2818/09 20:49ADIJAYA123murni besar25,000
2918/09 20:48TEMPUYAK90balak50,000
3018/09 20:48FADERSmurni besar50,000
3118/09 20:48TONGAT26murni besar5,000
3218/09 20:48GAGALAITUbalak10,000
3318/09 20:48DIHK4Amurni kecil50,000
3418/09 20:48PLGTOPAZ12balak10,000
3518/09 20:48ELLBADmurni besar25,000
3618/09 20:47JALIJALI09murni kecil5,000
3718/09 20:47MCDURKYmurni besar5,000
3818/09 20:47DATOKNDO11murni kecil25,000
3918/09 20:47KOBAH99murni kecil5,000
4018/09 20:46FBDHCmurni kecil50,000
4118/09 20:46DIASEL10balak50,000
4218/09 20:46ARIIE25murni besar50,000
4318/09 20:46IDN9999103lucky992,500
4418/09 20:46CADASmurni kecil25,000
4518/09 20:45LANDVILLlucky99700,000
4618/09 20:45ARDIANSWOWmurni kecil25,000
4718/09 20:45ROSSI_999balak100,000
4818/09 20:45HERO44murni kecil25,000
4918/09 20:45MAHO13murni besar50,000
5018/09 20:44BALON889lucky9950,000

Ceme Multi Jackpot System

Jackpot dilihat dari gabungan kartu pemain dengan kartu bandar. Bandar harus membeli jackpot sebanyak jumlah player yang sedang duduk. Sebagai contoh bila terdapat 3 pemain duduk bermain, dan bandar memutuskan untuk membeli jackpot Rp 1.000, maka pada periode tersebut bandar akan membeli jackpot sebanyak 3xRp1.000 = Rp3.000.

Jackpot bukanlah suatu keharusan untuk dibeli, namun kami memberikan suatu fitur tambahan untuk member tercinta dari www.jagoanpoker.net.

Terdapat tiga pilihan harga jackpot yang bisa anda beli yaitu :100,500 dan 1000 rupiah.

Hadiah dari Multi jackpot system www.jagoanpoker.net

  1. Murni Kecil x 50 harga jackpot yang anda beli.
      (contoh:anda membeli 1000 maka:1000 X 50 = 50.000)
  2. Murni Besar x 50 harga jackpot yang anda beli
      (contoh:anda membeli 1000 maka:1000 X 50 = 50.000)
  3. BALAK x 200 harga jackpot yang anda beli
      (contoh:anda membeli 1000 maka:1000 X 200 = 200.000)
  4. ENAM DEWA x 6666 harga jackpot yang anda beli
      (contoh:anda membeli 1000 maka:1000 X 6666 = 6.666.000)

Demikian adalah penjelasan dari Multi Jackpot www.jagoanpoker.net terima kasih dan selamat bermain salam hoki dari kami

Ceme Jackpot Winner

TOP ENAM DEWA
No.TanggalNamaPriceWin
118/09 20:43D15C09murni enam6,666,000
218/09 20:43RIZKYAR57murni enam6,666,000
318/09 20:30KANGKUNG05murni enam666,600
418/09 20:27MADAM09murni enam6,666,000
518/09 20:25ABHOK526murni enam6,666,000
TOP BALAK
No.TanggalNamaPriceWin
118/09 20:56C18ROS99264balak20,000
218/09 20:56S2O4SLW18Zbalak200,000
318/09 20:56DUAREBU778balak200,000
418/09 20:55ARAFAHNURbalak200,000
518/09 20:55BPR0WNHVCMbalak20,000
LATEST JACKPOT
No.TanggalNamaPriceWin
118/09 20:57KOIL666murni besar50,000
218/09 20:56APRImurni besar5,000
318/09 20:56NASIRQILDUmurni kecil5,000
418/09 20:56MATSUMOTO8murni besar25,000
518/09 20:56ARCHER50murni besar50,000
618/09 20:56BRYAN74murni besar50,000
718/09 20:56GARRAGAS2murni besar5,000
818/09 20:56WINNR21murni besar50,000
918/09 20:56BENOITmurni besar25,000
1018/09 20:56LIKOmurni besar50,000
1118/09 20:56TRIS55murni besar50,000
1218/09 20:56LINTING63murni kecil25,000
1318/09 20:56QQMURGAR58murni besar5,000
1418/09 20:56OOOONmurni kecil25,000
1518/09 20:56C18ROS99264balak20,000
1618/09 20:56AN3S17murni kecil50,000
1718/09 20:56S2O4SLW18Zbalak200,000
1818/09 20:56BEGJAQIUmurni kecil50,000
1918/09 20:56DUAREBU778balak200,000
2018/09 20:56IBLISTIDURmurni kecil50,000
2118/09 20:56RAKUS444murni besar5,000
2218/09 20:55SYAIFUL16murni besar50,000
2318/09 20:55TWIN_SIXD3murni kecil25,000
2418/09 20:55FENDY08murni kecil25,000
2518/09 20:55ARAFAHNURbalak200,000
2618/09 20:55BPR0WNHVCMbalak20,000
2718/09 20:55RAMPOKbalak20,000
2818/09 20:55DIKLITmurni besar50,000
2918/09 20:55CCNKmurni kecil50,000
3018/09 20:55H3P3NG88murni besar25,000
3118/09 20:54DRAGONGENJmurni kecil50,000
3218/09 20:54ITELmurni kecil5,000
3318/09 20:54SABHEENAHmurni besar50,000
3418/09 20:54POKERO1001murni besar50,000
3518/09 20:54A0B1BB4Bmurni besar5,000
3618/09 20:54RICKO20murni besar25,000
3718/09 20:54T34M4945murni kecil50,000
3818/09 20:54MULTI88954murni kecil50,000
3918/09 20:54KIBAYbalak200,000
4018/09 20:54LINTING63murni besar25,000
4118/09 20:54HAJIDEDENmurni kecil25,000
4218/09 20:54HOKIKU1986murni kecil50,000
4318/09 20:54EKADSmurni kecil50,000
4418/09 20:54KEIAZmurni kecil5,000
4518/09 20:54BUREG11murni kecil50,000
4618/09 20:54AM21EN79HRmurni kecil25,000
4718/09 20:54QIUQIUJHONmurni kecil50,000
4818/09 20:54DINA07murni besar50,000
4918/09 20:54T4DJALU99balak200,000
5018/09 20:54S4T03balak200,000